Location: El Aguajito
(32.3321°N, 116.6011°W)
Time: 06:22:02
(UTC+00:00)

Daily predictions for brighter satellites

Satellite Brightness Start Highest point End
(mag) Time Altitude Azimuth Time Altitude Azimuth Time Altitude Azimuth
SWIFT 4.3 12:04:01 10° SW 12:05:41 12° S 12:07:22 10° SSE
OE (NEXTSAT) 4.4 12:02:55 11° WSW 12:06:03 63° NW 12:09:18 10° NE
Meteor 1-18 Rocket 4.4 12:00:17 10° N 12:06:06 89° W 12:12:01 10° S
Cosmos 1513 Rocket 4.5 12:03:14 10° NNW 12:09:12 62° W 12:15:11 10° S
Envisat 3.3 12:06:17 10° NNE 12:11:21 72° E 12:16:24 10° S
ALOS 3.7 12:09:04 10° NNW 12:12:31 21° WNW 12:15:57 10° WSW
Cosmos 1633 Rocket 3.5 12:08:40 10° S 12:12:58 66° E 12:17:16 10° NNE
H-2A R/B 3.7 12:10:22 10° NNE 12:13:58 48° E 12:17:35 10° S
